Погода в Баеве

Россия / Республика Мордовия     54°50′18″N   46°22′10″E
темп.,
°C
ветер,
м/с
пор.,
м/с
влажн.,
%
обл.,
%
осадки,
мм/ч
давл.,
гПа
погр.,
м
11 апреля, вс
вс1100:00+1ссз2310081 0.0 102683
03:00+1с2610099 0.0 1027171
06:00+1ссз27100100 0.1 1028228
09:00+1с26100100 0.6 1030244
12:00+3ссв2698100 0.0 1030275
15:00+3в2297100 0.1 103253
18:00+3св2697100 0.8 1033124
21:00+3св2596100 0.9 1033101
12 апреля, пн
пн1200:00+3св4998100 1.1 1033196
03:00+3св3798100 4.0 1035183
06:00+2св4998100 3.7 1035233
09:00+5всв5119699 3.8 1035329
12:00+9в599282 0.0 1034403
15:00+11в588399 0.0 1034481
18:00+9всв4893100 0.0 1033215
21:00+7в369596 0.0 1033112
13 апреля, вт
вт1300:00+7вюв22905 0.0 103322
03:00+7юв338682 0.0 103319
06:00+7ююв3385100 0.0 103224
09:00+12ююв486743 0.0 1032306
12:00+16ююв564399 0.0 1031942
15:00+17ю563971 0.0 10301178
18:00+14ююв34555 0.0 102973
21:00+11ююв37655 0.0 102999
14 апреля, ср
ср1400:00+9ююв226852 0.0 102915
03:00+7ююв22718 0.0 102911
06:00+7ююв22745 0.0 102811
09:00+12ююв345987 0.0 1028243
12:00+17ююв454558 0.0 1026872
15:00+18ююв453444 0.0 10251318
18:00+15ююв22482 0.0 102328
21:00+11ююв336075 0.0 102421
15 апреля, чт
чт1500:00+9ююв22635 0.0 102313
03:00+8ююв22660 0.0 102210
06:00+7ююв22685 0.0 102110
09:00+12ююв23525 0.0 1020264
12:00+16ю23405 0.0 10191011
15:00+18ююв23405 0.0 10171563
18:00+16св225143 0.0 101512
21:00+13всв226277 0.0 101412